Regional Weather Roundup
Issued by NWS

Home | Current Version | Previous Version | Graphics & Text | Print | Product List | Glossary On
Versions: 1 2 3 4 5 6 7 8 9 10 11 12 13 14 15 16 17 18 19 20 21 22 23 24 25 26 27 28 29 30 31 32 33 34 35 36 37 38 39 40 41 42 43 44 45 46 47 48 49 50
000
ASUS43 KIND 272359
RWRIN

WEATHER ROUNDUP FOR INDIANA
NATIONAL WEATHER SERVICE INDIANAPOLIS IN
800 PM EDT FRI MAY 27 2016

NOTE: "FAIR" INDICATES FEW OR NO CLOUDS BELOW 12,000 FEET WITH NO
SIGNIFICANT WEATHER AND/OR OBSTRUCTIONS TO VISIBILITY.

* - STATION DOES NOT REPORT WEATHER SUCH AS PRECIPITATION OR FOG.

+ - STATION NOT QUALITY CONTROLLED BY THE NATIONAL WEATHER SERVICE.
    USE DATA WITH CAUTION...ESPECIALLY DEWPOINT AND RELATIVE
    HUMIDITY OBSERVATIONS.

INZ001>003-010>013-019-020-280100-
NORTHWEST INDIANA

CITY           SKY/WX    TMP DP  RH WIND       PRES   REMARKS
GARY /AIRPORT/ PTSUNNY   79  73  83 SE7       29.85S
RENSSELAER +   DRIZZLE   77  63  61 SW15      29.88R

$$

LMZ046-743>745-280100-
SOUTHERN LAKE MICHIGAN

STATION/POSITION TIME  TEMP    WIND        PRES    WAVE
                       AIR SEA DIR/SP/G            HT
                 (UTC) (F)     (DEG/KT/KT) (MB)    (FT)
BURNS HARBOR     2300   75     160/  9/ 17 1011.5F
MICHIGAN CITY    2300   72     120/ 13/ 16   N/A
5NW MICH CITY    2300   65 59  150/  8/ 12   N/A     1

$$

INZ004-005-014>016-021>024-280100-
NORTH CENTRAL INDIANA

CITY           SKY/WX    TMP DP  RH WIND       PRES   REMARKS
ELKHART        CLOUDY    82  64  54 S7        29.90R
GOSHEN         MOSUNNY   81  58  45 S7        29.89S
6HR MIN TEMP:  80; 6HR MAX TEMP:  87;

SOUTH BEND     CLOUDY    71  68  90 N3        29.89F
6HR MIN TEMP:  71; 6HR MAX TEMP:  85; 6HR PCP:  0.01;


$$

INZ006>009-017-018-025>027-280100-
NORTHEAST INDIANA

CITY           SKY/WX    TMP DP  RH WIND       PRES   REMARKS
ANGOLA *+        N/A     84  79  84 S7        29.91F HX  96
FORT WAYNE     PTCLDY    83  56  39 S14       29.92R
6HR MIN TEMP:  83; 6HR MAX TEMP:  88;


$$

INZ028-029-035-036-043>045-051>053-280100-
WEST CENTRAL INDIANA

CITY           SKY/WX    TMP DP  RH WIND       PRES   REMARKS
CRAWFORDSVL +  SUNNY     77  60  57 S9        29.91R
6HR MIN TEMP:  77; 6HR MAX TEMP:  83;

GREENCASTLE +  SUNNY     79  64  61 S9        29.92R
LAFAYETTE      PTSUNNY   80  59  48 S10       29.88R
6HR MIN TEMP:  80; 6HR MAX TEMP:  84;

TERRE HAUTE    PTSUNNY   81  62  52 S15       29.89S
6HR MIN TEMP:  80; 6HR MAX TEMP:  84;


$$

INZ030>032-037>040-046>048-054>057-064-065-280100-
CENTRAL INDIANA

CITY           SKY/WX    TMP DP  RH WIND       PRES   REMARKS
INDIANAPOLIS   MOSUNNY   82  61  48 S15       29.91R
6HR MIN TEMP:  80; 6HR MAX TEMP:  85;

-EAGLE CREEK   SUNNY     82  57  42 S10G20    29.92R
6HR MIN TEMP:  81; 6HR MAX TEMP:  86;

KOKOMO *+      MOSUNNY   82  57  42 S15G22    29.90S
6HR MIN TEMP:  81; 6HR MAX TEMP:  84;

SHELBYVILLE    CLEAR     84  60  44 S14G22    29.93R
6HR MIN TEMP:  84; 6HR MAX TEMP:  90;


$$

INZ033-034-041-042-049-050-058-059-280100-
EAST CENTRAL INDIANA

CITY           SKY/WX    TMP DP  RH WIND       PRES   REMARKS
MUNCIE         PTCLDY    85  59  41 SW14G22   29.93R
6HR MIN TEMP:  85; 6HR MAX TEMP:  89;


$$

INZ060-061-067>069-081>083-085>088-280100-
SOUTHWEST INDIANA

CITY           SKY/WX    TMP DP  RH WIND       PRES   REMARKS
EVANSVILLE     CLOUDY    80  60  50 S8        29.91R
6HR MIN TEMP:  80; 6HR MAX TEMP:  85;

HUNTINGBURG *+ MOSUNNY   81  63  54 S9        29.93R
6HR MIN TEMP:  81; 6HR MAX TEMP:  84; 6HR PCP:  0.01;


$$

INZ062-063-066-070>080-084-089>092-280100-
SOUTH CENTRAL AND SOUTHEAST INDIANA

CITY           SKY/WX    TMP DP  RH WIND       PRES   REMARKS
BLOOMINGTON    SUNNY     82  61  48 S8        29.93R
6HR MIN TEMP:  81; 6HR MAX TEMP:  86;

MADISON *+     CLOUDY    81  63  54 S3        29.98S
SEYMOUR +      PTCLDY    81  63  54 S9        29.94R

$$




USA.gov is the U.S. government's official web portal to all federal, state and local government web resources and services.